Weather History for Branson, MO

Change the Weather History Date:

Thursday, June 19, 2014

  Actual Average (KHRO) Record (KHRO)
Temperature  
Mean Temperature 79 °F 75 °F  
Max Temperature 89 °F 86 °F 102 °F (1953)
Min Temperature 69 °F 64 °F 42 °F (1912)
Degree Days  
Heating Degree Days 0 0  
Month to date heating degree days 3  
Since 1 June heating degree days 3  
Since 1 July heating degree days 4001  
Cooling Degree Days 14 10  
Month to date cooling degree days 146  
Year to date cooling degree days 285  
Since 1 June cooling degree days 146  
Growing Degree Days 29 (Base 50)    
Moisture  
Dew Point 67 °F    
Average Humidity 79    
Maximum Humidity 94    
Minimum Humidity 43    
Precipitation  
Precipitation 0.00 in 0.14 in 1.80 in (1987)
Month to date precipitation 2.75  
Year to date precipitation 20.75  
Snow  
Snow 0.00 in 0.00 in - ()
Month to date snowfall 0.0  
Since 1 June snowfall 0.0  
Since 1 July snowfall 11.5  
Snow Depth -    
Sea Level Pressure  
Sea Level Pressure 30.06 in    
Wind  
Wind Speed 5 mph (South)    
Max Wind Speed 16 mph    
Max Gust Speed 17 mph    
Visibility 10 miles    
Events      
T = Trace of Precipitation, MM = Missing Value Source: NWS Daily Summary

Daily Weather History Graph

Daily Weather History Graph

Search for Another Location

Airport:

Trip Planner

Search our weather history database for the weather conditions in past years. The results will help you decide how hot, cold, wet, or windy it might be!

Date:

Astronomy

Jun. 19, 2014 Rise Set
Actual Time 5:54 AM CDT 8:33 PM CDT
Civil Twilight 5:23 AM CDT 9:04 PM CDT
Nautical Twilight 4:45 AM CDT 9:42 PM CDT
Astronomical Twilight 4:03 AM CDT 10:25 PM CDT
Moon 12:48 AM CDT (6/19) 1:14 PM CDT (6/19)
Length of Visible Light 15h 40m
Length of Day
14h 39m
Waning Gibbous, 51% of the Moon is Illuminated
Jun 19
Waning Gibbous
Jun 19
Last Quarter
Jun 27
New
Jul 5
First Quarter
Jul 12
Full

Hourly Weather History & Observations

Time (CDT) Temp. Heat Index Dew Point Humidity Pressure Visibility Wind Dir Wind Speed Gust Speed Precip Events Conditions
12:35 AM 73.4 °F - 66.2 °F 78% 30.03 in 10.0 mi SSE 5.8 mph - N/A   Clear
12:55 AM 71.6 °F - 66.2 °F 83% 30.04 in 10.0 mi SSE 4.6 mph - N/A   Clear
1:15 AM 71.6 °F - 66.2 °F 83% 30.04 in 10.0 mi SE 4.6 mph - N/A   Clear
1:35 AM 71.6 °F - 66.2 °F 83% 30.04 in 10.0 mi SE 4.6 mph - N/A   Clear
1:55 AM 69.8 °F - 66.2 °F 88% 30.04 in 10.0 mi SE 4.6 mph - N/A   Clear
2:15 AM 69.8 °F - 66.2 °F 88% 30.03 in 10.0 mi SE 6.9 mph - N/A   Clear
2:35 AM 69.8 °F - 66.2 °F 88% 30.03 in 10.0 mi SE 5.8 mph - N/A   Clear
2:55 AM 69.8 °F - 66.2 °F 88% 30.03 in 10.0 mi SSE 6.9 mph - N/A   Clear
3:15 AM 69.8 °F - 66.2 °F 88% 30.03 in 10.0 mi SSE 5.8 mph - N/A   Clear
3:35 AM 69.8 °F - 68.0 °F 94% 30.03 in 10.0 mi SSE 4.6 mph - N/A   Clear
3:55 AM 71.6 °F - 68.0 °F 88% 30.03 in 10.0 mi SSE 4.6 mph - N/A   Clear
4:15 AM 71.6 °F - 68.0 °F 88% 30.03 in 10.0 mi South 5.8 mph - N/A   Clear
4:35 AM 71.6 °F - 68.0 °F 88% 30.03 in 10.0 mi South 4.6 mph - N/A   Clear
4:55 AM 71.6 °F - 68.0 °F 88% 30.04 in 10.0 mi South 5.8 mph - N/A   Clear
5:15 AM 71.6 °F - 68.0 °F 88% 30.04 in 10.0 mi South 5.8 mph - N/A   Clear
5:35 AM 71.6 °F - 68.0 °F 88% 30.04 in 10.0 mi South 3.5 mph - N/A   Clear
5:55 AM 71.6 °F - 68.0 °F 88% 30.05 in 10.0 mi South 3.5 mph - N/A   Clear
6:15 AM 71.6 °F - 68.0 °F 88% 30.05 in 10.0 mi South 5.8 mph - N/A   Clear
6:35 AM 71.6 °F - 68.0 °F 88% 30.05 in 10.0 mi South 3.5 mph - N/A   Clear
6:45 AM 71.6 °F - 68.0 °F 88% 30.05 in 10.0 mi SSW 6.9 mph - N/A   Scattered Clouds
7:45 AM 77.0 °F - 69.8 °F 78% 30.09 in 10.0 mi South 5.8 mph - N/A   Clear
8:50 AM 80.6 °F 83.9 °F 69.8 °F 70% 30.11 in 10.0 mi South 4.6 mph - N/A   Scattered Clouds
9:45 AM 86.0 °F 89.4 °F 68.0 °F 55% 30.11 in 10.0 mi South 10.4 mph - N/A   Partly Cloudy
11:46 AM 86.0 °F 88.2 °F 66.2 °F 51% 30.09 in 10.0 mi South 8.1 mph - N/A   Scattered Clouds
12:45 PM 87.8 °F 88.5 °F 62.6 °F 43% 30.08 in 10.0 mi SSW 8.1 mph 17.3 mph N/A   Scattered Clouds
1:55 PM 86.0 °F 88.2 °F 66.2 °F 51% 30.08 in 10.0 mi SSW 6.9 mph - N/A   Scattered Clouds
2:56 PM 89.6 °F 92.2 °F 66.2 °F 46% 30.09 in 10.0 mi SSW 16.1 mph - N/A   Scattered Clouds
4:46 PM 86.0 °F 87.3 °F 64.4 °F 48% 30.05 in 10.0 mi SSW 12.7 mph 17.3 mph N/A   Scattered Clouds
5:46 PM 84.2 °F 86.6 °F 66.2 °F 55% 30.04 in 10.0 mi SSW 5.8 mph - N/A   Scattered Clouds
6:47 PM 84.2 °F 87.3 °F 68.0 °F 58% 30.06 in 10.0 mi SW 6.9 mph - N/A   Scattered Clouds
7:45 PM 80.6 °F 83.2 °F 68.0 °F 65% 30.06 in 10.0 mi Calm Calm - N/A   Scattered Clouds
8:55 PM 73.4 °F - 68.0 °F 83% 30.07 in 10.0 mi Calm Calm - N/A   Clear
8:56 PM 73.4 °F - 68.0 °F 83% - 10.0 mi Calm Calm - N/A   Scattered Clouds
9:15 PM 71.6 °F - 68.0 °F 88% 30.07 in 10.0 mi Calm Calm - N/A   Clear
9:35 PM 71.6 °F - 68.0 °F 88% 30.08 in 10.0 mi Calm Calm - N/A   Clear
9:55 PM 71.6 °F - 68.0 °F 88% 30.08 in 10.0 mi Calm Calm - N/A   Clear
10:15 PM 71.6 °F - 68.0 °F 88% 30.09 in 10.0 mi Calm Calm - N/A   Clear
10:35 PM 71.6 °F - 68.0 °F 88% 30.10 in 10.0 mi Calm Calm - N/A   Clear
10:55 PM 71.6 °F - 68.0 °F 88% 30.09 in 10.0 mi Calm Calm - N/A   Clear
11:35 PM 71.6 °F - 68.0 °F 88% 30.09 in 10.0 mi Calm Calm - N/A   Clear
11:55 PM 71.6 °F - 68.0 °F 88% 30.10 in 10.0 mi Calm Calm - N/A   Clear